Waarnemingen

Advertentie
Mijn weer
Gueret-St Laurent, Frankrijk (7361): temperatuur & dauwpunt: 29.05.2020 16:00:00 - 04.06.2020 16:00:00 (CEST)Gueret-St Laurent, Frankrijk (7361): temperatuur 5cm: 29.05.2020 16:00:00 - 04.06.2020 16:00:00 (CEST)Gueret-St Laurent, Frankrijk (7361): temperatuur -20cm & temperatuur -100cm: 29.05.2020 16:00:00 - 04.06.2020 16:00:00 (CEST)Gueret-St Laurent, Frankrijk (7361): windsnelheid & windstoten: 29.05.2020 16:00:00 - 04.06.2020 16:00:00 (CEST)Gueret-St Laurent, Frankrijk (7361): windrichting: 29.05.2020 16:00:00 - 04.06.2020 16:00:00 (CEST)Gueret-St Laurent, Frankrijk (7361): luchtdruk: 29.05.2020 16:00:00 - 04.06.2020 16:00:00 (CEST)Gueret-St Laurent, Frankrijk (7361): zicht: 29.05.2020 16:00:00 - 04.06.2020 16:00:00 (CEST)Gueret-St Laurent, Frankrijk (7361): Zonneschijnduur: 29.05.2020 16:00:00 - 04.06.2020 16:00:00 (CEST)Gueret-St Laurent, Frankrijk (7361): neerslag: 29.05.2020 16:00:00 - 04.06.2020 16:00:00 (CEST)
Datum & Tijd tt [°C] td [°C] tt 5cm [°C] tt -20cm [°C] tt -100cm [°C] ff [km/u] ff [kn] fx [km/u] fx [kn] dd ppp [hPa] vv [km] sd [min] rr [mm]
04.06.2020 16:00:00 13,6 11,8 12,2 17,3 15,0 7 4 18 10 ZW 1001,2 13 4 0,8
04.06.2020 15:00:00 12,6 10,1 12,3 17,3 15,0 7 4 29 16 ZW 1001,5 14 3 1,0
04.06.2020 14:00:00 17,6 10,5 20,8 17,3 15,0 10 5 23 13 W 1000,0 20 26 0,0
04.06.2020 13:00:00 16,1 10,8 17,1 17,3 15,0 8 5 31 17 WZW 1000,4 20 5 0,0
04.06.2020 12:00:00 16,9 10,7 20,6 17,4 15,0 8 4 24 13 WZW 999,9 20 17 0,0
04.06.2020 11:00:00 16,3 9,9 16,4 17,4 15,0 9 5 20 11 ZW 999,9 20 18 0,0
04.06.2020 10:00:00 14,7 10,5 14,9 17,5 15,0 6 3 27 14 WZW 1000,8 20 18 0,0
04.06.2020 09:00:00 13,5 10,5 14,3 17,6 15,0 9 5 21 11 ZW 1001,0 20 17 0,0
04.06.2020 08:00:00 13,1 10,6 11,9 17,7 15,0 9 5 21 11 ZZW 1000,7 20 17 0,0
04.06.2020 07:00:00 12,6 10,7 11,3 17,7 15,0 8 4 18 10 ZW 1000,9 20 0 0,0
04.06.2020 06:00:00 11,6 11,0 7,4 17,8 15,0 6 4 16 9 ZZW 1001,0 16 0 0,0
04.06.2020 05:00:00 10,4 9,5 4,8 17,8 14,9 9 5 20 11 Z 1001,3 20 0 0,0
04.06.2020 04:00:00 10,2 9,3 5,8 17,8 14,9 2 1 9 5 NNO 1001,8 3,4 0 0,0
04.06.2020 03:00:00 12,0 10,4 8,8 17,8 14,9 3 2 11 6 ZZW 1002,0 20 0 0,0
04.06.2020 02:00:00 12,6 11,3 12,1 17,8 14,9 6 3 14 7 ZW 1002,2 20 0 0,0
04.06.2020 01:00:00 12,7 12,2 11,4 17,9 14,9 4 2 9 5 O 1002,4 10 0 0,0
04.06.2020 00:00:00 13,2 12,7 11,6 17,9 14,9 4 2 9 5 O 1002,6 9 0 0,2
03.06.2020 23:00:00 13,2 12,7 11,1 17,8 14,9 8 4 12 6 O 1002,8 10 0 0,0
03.06.2020 22:00:00 13,8 13,0 12,5 17,8 14,9 4 2 11 6 ONO 1002,7 2,7 12 0,2
03.06.2020 21:00:00 14,8 13,8 14,3 17,7 14,9 10 5 22 12 ZZO 1003,2 10 8 1,6
03.06.2020 20:00:00 15,3 14,2 14,7 17,7 14,9 5 3 15 8 ZZO 1004,0 17 0 0,8
03.06.2020 19:00:00 15,8 13,6 15,5 17,5 14,9 3 2 22 12 O 1003,1 20 1 1,6
03.06.2020 18:00:00 17,4 15,7 16,4 17,5 14,9 4 2 16 8 OZO 1003,0 20 0 1,2
03.06.2020 17:00:00 19,7 14,1 17,5 17,4 14,9 9 5 19 10 NNW 1003,1 9 23 0,2
03.06.2020 16:00:00 22,6 14,7 25,1 17,3 14,8 5 3 17 9 NNO 1003,1 20 52 0,0
03.06.2020 15:00:00 20,5 14,6 18,1 17,3 14,8 7 4 19 11 NNW 1004,7 20 32 0,0
03.06.2020 14:00:00 17,8 13,3 16,8 17,3 14,9 5 3 47 26 WZW 1005,4 20 0 0,0
03.06.2020 13:00:00 25,0 13,2 26,2 17,3 14,8 9 5 19 10 WZW 1004,4 20 30 0,0
03.06.2020 12:00:00 25,2 13,4 30,0 17,3 14,8 8 4 17 9 W 1005,4 20 49 0,0
03.06.2020 11:00:00 23,9 13,1 29,1 17,4 14,8 3 2 12 6 ZW 1006,2 19 40 0,0
03.06.2020 10:00:00 22,8 15,6 25,1 17,5 14,9 0 0 7 4 N 1006,9 20 60 0,0
03.06.2020 09:00:00 18,6 13,7 18,4 17,5 14,8 5 3 10 6 O 1008,1 20 60 0,0
03.06.2020 08:00:00 14,2 12,1 10,1 17,6 14,8 3 2 5 3 O 1009,3 20 60 0,0
03.06.2020 07:00:00 10,7 10,1 6,8 17,7 14,8 0 0 6 4 N 1010,3 20 31 0,0
03.06.2020 06:00:00 10,1 9,2 7,1 17,7 14,8 6 3 11 6 O 1010,5 20 0 0,0
03.06.2020 05:00:00 10,5 9,7 6,5 17,8 14,8 6 3 11 6 OZO 1011,0 20 0 0,0
03.06.2020 04:00:00 10,2 9,4 6,4 17,8 14,8 4 2 9 5 OZO 1011,9 20 0 0,0
03.06.2020 03:00:00 11,5 10,6 8,0 17,8 14,8 6 4 11 6 OZO 1012,4 20 0 0,0
03.06.2020 02:00:00 11,5 10,9 7,7 17,7 14,8 6 4 10 6 OZO 1013,0 20 0 0,0
03.06.2020 01:00:00 12,1 11,2 8,3 17,7 14,8 2 1 6 4 OZO 1013,3 20 0 0,0
03.06.2020 00:00:00 13,3 11,7 9,0 17,6 14,8 4 2 6 3 OZO 1013,4 20 0 0,0
02.06.2020 23:00:00 14,7 12,2 10,2 17,5 14,8 5 3 7 4 ZZO 1013,5 20 0 0,0
02.06.2020 22:00:00 17,8 12,5 12,1 17,4 14,8 3 2 5 3 OZO 1012,9 0,9 0 0,0
02.06.2020 21:00:00 21,9 11,9 17,4 17,3 14,8 0 0 11 6 N 1012,2 20 41 0,0
02.06.2020 20:00:00 24,7 11,3 25,2 17,1 14,8 6 4 15 8 N 1012,1 20 60 0,0
02.06.2020 19:00:00 25,3 11,1 26,2 17,0 14,8 11 6 22 12 N 1012,2 19 60 0,0
02.06.2020 18:00:00 25,7 11,8 27,6 16,8 14,8 11 6 19 11 NNO 1012,6 20 60 0,0
02.06.2020 17:00:00 25,8 13,6 27,2 16,7 14,8 10 5 22 12 N 1013,1 20 55 0,0
02.06.2020 16:00:00 25,9 12,7 26,2 16,6 14,8 11 6 22 12 N 1013,6 20 54 0,0
02.06.2020 15:00:00 25,7 15,1 27,4 16,6 14,8 4 2 18 10 O 1014,0 17 51 0,0
02.06.2020 14:00:00 25,3 14,1 28,5 16,6 14,8 9 5 17 9 OZO 1014,7 20 53 0,0
02.06.2020 13:00:00 24,0 14,1 33,2 16,6 14,8 10 5 17 9 NO 1015,5 20 60 0,0
02.06.2020 12:00:00 23,2 14,2 31,7 16,7 14,7 4 2 11 6 NNW 1015,8 20 60 0,0
02.06.2020 11:00:00 21,2 13,9 26,7 16,7 14,7 4 2 9 5 NW 1016,2 20 60 0,0
02.06.2020 10:00:00 18,7 13,3 21,7 16,7 14,7 6 3 9 5 OZO 1016,9 19 60 0,0
02.06.2020 09:00:00 15,3 13,0 15,7 16,8 14,8 4 2 9 5 OZO 1017,4 20 60 0,0
02.06.2020 08:00:00 12,3 11,7 9,6 16,9 14,8 6 3 13 7 OZO 1017,8 20 60 0,2
02.06.2020 07:00:00 9,7 9,6 5,9 16,9 14,8 5 3 10 5 OZO 1018,1 19 31 0,0
02.06.2020 06:00:00 7,9 7,5 5,5 17,0 14,8 5 3 9 5 O 1018,2 1,0 0 0,0
02.06.2020 05:00:00 8,7 8,4 6,8 17,0 14,7 3 2 10 5 ZZW 1018,2 3,0 0 0,0
02.06.2020 04:00:00 8,5 8,1 6,8 17,1 14,7 0 0 10 5 N 1018,2 0,5 0 0,0
02.06.2020 03:00:00 9,4 8,9 6,8 17,1 14,7 4 2 9 5 ZZO 1018,6 2,1 0 0,0
02.06.2020 02:00:00 9,8 9,3 6,7 17,1 14,7 4 2 9 5 OZO 1018,6 0,2 0 0,0
02.06.2020 01:00:00 10,6 10,0 7,5 17,1 14,7 0 0 11 6 N 1018,7 1,0 0 0,0
02.06.2020 00:00:00 11,6 10,7 9,1 17,1 14,7 0 0 9 5 N 1018,4 9 0 0,0
01.06.2020 23:00:00 12,9 12,0 11,2 17,1 14,7 3 1 12 7 O 1017,4 20 0 0,0
01.06.2020 22:00:00 13,5 11,9 12,5 17,1 14,7 5 3 11 6 O 1017,3 2,0 10 0,0
01.06.2020 21:00:00 14,5 12,4 14,4 17,1 14,7 7 4 18 10 OZO 1017,2 20 60 0,0
01.06.2020 20:00:00 15,3 12,4 16,2 17,0 14,7 6 4 14 7 O 1016,1 20 43 0,0
01.06.2020 19:00:00 14,7 12,7 13,1 17,0 14,7 5 3 22 12 OZO 1016,2 20 3 1,6
01.06.2020 18:00:00 13,7 12,1 12,7 16,9 14,7 9 5 14 8 ZZW 1018,5 20 0 1,5
01.06.2020 17:00:00 13,9 11,1 12,5 16,8 14,7 13 7 47 26 NNW 1018,4 20 0 1,6
01.06.2020 16:00:00 14,9 11,7 13,4 16,8 14,7 5 3 35 19 NNW 1015,7 18 0 0,2
01.06.2020 15:00:00 19,0 16,8 18,3 16,8 14,7 6 3 11 6 Z 1014,7 17 0 2,8
01.06.2020 14:00:00 24,3 13,5 26,7 16,7 14,7 5 3 18 10 N 1013,8 20 36 0,0
01.06.2020 13:00:00 24,4 14,2 33,5 16,8 14,7 8 4 17 9 ZO 1014,0 20 58 0,0
01.06.2020 12:00:00 23,8 13,9 31,7 16,8 14,7 5 3 20 11 N 1014,2 20 60 0,0
01.06.2020 11:00:00 21,9 12,4 19,7 16,9 14,7 3 2 9 5 NO 1014,6 20 45 0,0
01.06.2020 10:00:00 16,5 10,6 18,7 17,0 14,7 6 4 12 7 OZO 1015,5 20 20 0,0
01.06.2020 09:00:00 15,4 11,2 15,4 17,1 14,7 5 3 8 4 O 1015,1 20 60 0,0
01.06.2020 08:00:00 11,4 9,0 7,5 17,1 14,7 3 2 6 4 ONO 1015,8 20 60 0,2
01.06.2020 07:00:00 7,6 7,2 2,4 17,2 14,6 3 2 8 4 OZO 1016,1 20 30 0,0
01.06.2020 06:00:00 6,1 5,5 2,4 17,3 14,7 4 2 7 4 O 1016,0 18 0 0,0
01.06.2020 05:00:00 6,7 6,0 2,9 17,3 14,7 0 0 5 3 N 1016,1 20 0 0,0
01.06.2020 04:00:00 6,8 5,9 3,1 17,3 14,6 6 3 8 4 O 1016,0 20 0 0,0
01.06.2020 03:00:00 7,2 6,0 3,2 17,3 14,6 4 2 6 3 O 1016,3 20 0 0,0
01.06.2020 02:00:00 8,2 7,0 3,5 17,3 14,6 3 2 5 3 O 1016,4 20 0 0,0
01.06.2020 01:00:00 9,3 7,6 4,5 17,3 14,6 0 0 5 3 N 1016,2 20 0 0,0
01.06.2020 00:00:00 10,9 8,1 6,4 17,3 14,6 0 0 7 4 N 1016,0 20 0 0,0
31.05.2020 23:00:00 13,5 7,3 7,1 17,2 14,6 0 0 11 6 N 1015,6 20 0 0,0
31.05.2020 22:00:00 15,4 7,7 9,1 17,1 14,6 2 1 11 6 O 1014,6 8 0 0,0
31.05.2020 21:00:00 19,3 8,3 15,7 17,0 14,6 6 3 22 12 NO 1013,6 20 40 0,0
31.05.2020 20:00:00 21,7 8,6 21,8 16,9 14,6 14 7 23 13 NO 1013,0 20 60 0,0
31.05.2020 19:00:00 22,8 9,2 23,9 16,8 14,6 11 6 25 14 NO 1012,5 20 60 0,0
31.05.2020 18:00:00 23,4 9,0 25,0 16,6 14,6 13 7 24 13 O 1012,8 20 60 0,0
31.05.2020 17:00:00 23,4 9,8 26,0 16,6 14,6 15 8 31 17 NNO 1012,9 20 60 0,0
31.05.2020 16:00:00 23,3 9,7 29,2 16,5 14,6 17 9 27 15 NO 1013,2 16 60 0,0
31.05.2020 15:00:00 23,4 10,4 30,5 16,5 14,6 13 7 30 16 ONO 1013,3 20 60 0,0
31.05.2020 14:00:00 22,6 9,7 30,2 16,5 14,6 18 10 33 18 ONO 1013,6 20 60 0,0
31.05.2020 13:00:00 22,3 11,1 29,1 16,6 14,6 17 9 31 17 NO 1013,8 20 60 0,0
31.05.2020 12:00:00 21,5 9,7 28,0 16,6 14,6 13 7 26 14 ONO 1014,0 20 60 0,0
31.05.2020 11:00:00 20,2 9,7 25,2 16,7 14,6 14 7 28 15 ONO 1014,2 20 60 0,0
31.05.2020 10:00:00 18,5 9,0 21,5 16,8 14,6 9 5 18 10 OZO 1014,8 20 60 0,0
31.05.2020 09:00:00 15,1 9,9 15,0 16,9 14,6 4 2 8 4 OZO 1015,4 20 60 0,0
31.05.2020 08:00:00 9,8 8,2 5,5 16,9 14,6 3 2 8 4 O 1016,2 15 60 0,0
31.05.2020 07:00:00 6,5 6,2 0,5 17,0 14,6 2 1 6 4 OZO 1016,6 20 30 0,0
31.05.2020 06:00:00 4,9 4,3 0,4 17,1 14,6 4 2 6 4 O 1016,6 19 0 0,0
31.05.2020 05:00:00 5,3 4,6 0,6 17,1 14,5 0 0 5 3 N 1016,6 13 0 0,0
31.05.2020 04:00:00 6,5 5,8 1,0 17,2 14,6 3 2 5 3 O 1016,5 14 0 0,0
31.05.2020 03:00:00 7,1 6,2 1,8 17,2 14,5 3 2 5 3 OZO 1016,6 20 0 0,0
31.05.2020 02:00:00 8,0 6,9 2,9 17,2 14,6 5 3 10 5 ZO 1016,8 20 0 0,0
31.05.2020 01:00:00 9,2 7,5 4,2 17,1 14,5 3 1 5 3 ZO 1016,9 20 0 0,0
31.05.2020 00:00:00 10,5 8,1 5,4 17,1 14,5 0 0 5 3 N 1016,4 20 0 0,0
30.05.2020 23:00:00 12,0 7,5 6,5 17,0 14,5 0 0 4 2 N 1016,2 20 0 0,0
30.05.2020 22:00:00 14,9 7,7 8,2 16,9 14,5 0 0 8 4 N 1015,3 20 0 0,0
30.05.2020 21:00:00 18,6 7,7 14,6 16,9 14,5 7 4 23 13 NO 1014,5 20 40 0,0
30.05.2020 20:00:00 21,3 8,2 21,6 16,7 14,5 11 6 23 13 ONO 1014,2 20 60 0,0
30.05.2020 19:00:00 22,1 7,9 23,2 16,6 14,5 13 7 26 14 O 1014,3 19 60 0,0
30.05.2020 18:00:00 22,4 8,9 24,0 16,5 14,5 12 6 29 16 O 1014,3 17 60 0,0
30.05.2020 17:00:00 22,6 8,3 25,5 16,4 14,5 13 7 27 15 ONO 1014,7 20 60 0,0
30.05.2020 16:00:00 22,5 7,1 28,3 16,4 14,5 15 8 26 14 O 1015,0 20 60 0,0
30.05.2020 15:00:00 22,2 8,0 30,1 16,4 14,5 13 7 26 14 O 1015,3 20 60 0,0
30.05.2020 14:00:00 21,6 8,5 29,0 16,4 14,5 13 7 31 17 NO 1015,8 20 60 0,0
30.05.2020 13:00:00 21,1 9,0 28,3 16,4 14,5 17 9 29 16 NO 1016,2 18 60 0,0
30.05.2020 12:00:00 20,9 8,2 27,6 16,4 14,5 16 9 32 17 NO 1016,3 20 60 0,0
30.05.2020 11:00:00 20,0 8,6 26,6 16,5 14,5 11 6 24 13 ONO 1016,8 20 60 0,0
30.05.2020 10:00:00 18,2 9,3 21,6 16,6 14,5 2 1 8 4 ONO 1017,3 20 60 0,0
30.05.2020 09:00:00 14,6 9,2 15,0 16,7 14,5 0 0 6 3 N 1018,0 20 60 0,0
30.05.2020 08:00:00 9,8 7,2 5,9 16,8 14,4 4 2 13 7 O 1018,8 20 60 0,0
30.05.2020 07:00:00 6,3 5,1 3,2 16,9 14,5 9 5 13 7 OZO 1019,4 20 29 0,0
30.05.2020 06:00:00 5,2 4,3 2,0 16,9 14,4 5 3 11 6 O 1019,5 20 0 0,0
30.05.2020 05:00:00 5,1 4,1 0,5 17,0 14,5 7 4 11 6 O 1019,5 18 0 0,0
30.05.2020 04:00:00 5,9 4,9 1,2 17,1 14,5 6 3 11 6 OZO 1019,8 20 0 0,0
30.05.2020 03:00:00 6,3 5,3 1,9 17,0 14,4 6 3 9 5 OZO 1019,7 19 0 0,0
30.05.2020 02:00:00 7,1 5,7 2,4 17,0 14,4 2 1 7 4 ZZO 1019,6 20 0 0,0
30.05.2020 01:00:00 8,3 6,1 3,2 17,1 14,5 2 1 5 3 O 1019,6 20 0 0,0
30.05.2020 00:00:00 9,9 6,4 4,9 17,0 14,4 0 0 9 5 N 1019,4 20 0 0,0
29.05.2020 23:00:00 11,9 6,0 5,7 16,9 14,4 3 2 6 4 OZO 1019,1 20 0 0,0
29.05.2020 22:00:00 15,0 5,2 7,9 16,9 14,4 4 2 14 8 ONO 1018,3 3,8 0 0,0
29.05.2020 21:00:00 18,5 5,7 15,9 16,8 14,4 10 6 21 11 NNO 1017,4 20 40 0,0
29.05.2020 20:00:00 21,1 5,4 21,3 16,6 14,4 12 7 28 15 NNO 1017,0 20 60 0,0
29.05.2020 19:00:00 22,3 5,7 23,4 16,5 14,4 14 8 29 16 NNO 1017,1 20 60 0,0
29.05.2020 18:00:00 22,7 6,0 24,4 16,5 14,4 16 9 32 17 ONO 1017,1 20 60 0,0
29.05.2020 17:00:00 22,5 5,0 24,9 16,4 14,4 21 11 35 19 NO 1017,4 20 60 0,0
29.05.2020 16:00:00 23,1 7,2 28,9 16,4 14,4 14 8 29 16 ONO 1017,5 20 60 0,0

tt = temperatuur
td = dauwpunt
tt 5cm = temperatuur 5cm
tt -20cm = temperatuur -20cm
tt -100cm = temperatuur -100cm
ff = windsnelheid
fx = windstoten
dd = windrichting
ppp = luchtdruk
vv = zicht
sd = Zonneschijnduur
rr = neerslag

Weerstations in de omgeving